Weather History for Romeoville, IL

Change the Weather History Date:

Thursday, September 26, 2013

  Actual Average Record
Temperature  
Mean Temperature 66 °F 61 °F  
Max Temperature 79 °F 72 °F 93 °F (1998)
Min Temperature 52 °F 50 °F 37 °F (2000)
Degree Days  
Heating Degree Days 0 6  
Month to date heating degree days 51 65  
Since 1 July heating degree days 62 73  
Cooling Degree Days 1 2  
Month to date cooling degree days 131 89  
Year to date cooling degree days 909 842  
Growing Degree Days 13 (Base 50)    
Moisture  
Dew Point 49 °F    
Average Humidity 66    
Maximum Humidity 97    
Minimum Humidity 28    
Precipitation  
Precipitation 0.00 in 0.09 in 1.68 in (1996)
Month to date precipitation 1.17 2.78  
Year to date precipitation 30.49 30.60  
Sea Level Pressure  
Sea Level Pressure 30.05 in    
Wind  
Wind Speed 5 mph (East)    
Max Wind Speed 10 mph    
Max Gust Speed -    
Visibility 8 miles    
Events      
T = Trace of Precipitation, MM = Missing Value Source: NWS Daily Summary

Daily Weather History Graph

Daily Weather History Graph

Search for Another Location

Airport:

Trip Planner

Search our weather history database for the weather conditions in past years. The results will help you decide how hot, cold, wet, or windy it might be!

Date:

Astronomy

Sep. 26, 2013 Rise Set
Actual Time 6:44 AM CDT 6:42 PM CDT
Civil Twilight 6:16 AM CDT 7:09 PM CDT
Nautical Twilight 5:44 AM CDT 7:42 PM CDT
Astronomical Twilight 5:11 AM CDT 8:14 PM CDT
Moon 11:36 PM CDT (9/26) 1:40 PM CDT (9/26)
Length of Visible Light 12h 53m
Length of Day
11h 58m
Waning Gibbous, 54% of the Moon is Illuminated
Sep 26
Waning Gibbous
Sep 26
Last Quarter
Oct 4
New
Oct 11
First Quarter
Oct 18
Full

Hourly Weather History & Observations

Time (CDT) Temp. Dew Point Humidity Pressure Visibility Wind Dir Wind Speed Gust Speed Precip Events Conditions
12:15 AM 53.1 °F 50.4 °F 91% 29.97 in 7.0 mi ENE 4.6 mph - N/A   Clear
12:35 AM 55.4 °F 52.7 °F 91% 29.97 in 7.0 mi East 6.9 mph - N/A   Clear
12:55 AM 55.0 °F 52.3 °F 91% 29.97 in 7.0 mi East 6.9 mph - N/A   Clear
1:15 AM 54.7 °F 52.2 °F 91% 29.97 in 5.0 mi ENE 5.8 mph - N/A   Clear
1:35 AM 53.2 °F 51.4 °F 94% 29.98 in 4.0 mi ENE 4.6 mph - N/A   Clear
1:55 AM 52.9 °F 51.6 °F 95% 29.98 in 3.0 mi ENE 3.5 mph - N/A   Clear
2:15 AM 52.3 °F 51.1 °F 95% 29.99 in 3.0 mi East 4.6 mph - N/A   Clear
2:35 AM 52.5 °F 51.3 °F 95% 29.99 in 2.5 mi Calm Calm - N/A   Clear
2:55 AM 51.8 °F 50.9 °F 97% 30.00 in 1.8 mi ENE 3.5 mph - N/A   Mist
3:15 AM 52.3 °F 51.6 °F 97% 30.00 in 2.0 mi Calm Calm - N/A   Clear
3:35 AM 51.3 °F 50.4 °F 97% 30.00 in 2.0 mi East 3.5 mph - N/A   Clear
3:55 AM 52.7 °F 51.8 °F 97% 30.01 in 7.0 mi East 4.6 mph - N/A   Clear
4:15 AM 52.2 °F 49.8 °F 92% 30.01 in 5.0 mi East 4.6 mph - N/A   Clear
4:35 AM 51.8 °F 50.2 °F 94% 30.02 in 7.0 mi East 5.8 mph - N/A   Clear
4:55 AM 53.1 °F 50.2 °F 90% 30.02 in 7.0 mi East 5.8 mph - N/A   Clear
5:15 AM 52.7 °F 49.8 °F 90% 30.02 in 7.0 mi East 5.8 mph - N/A   Clear
5:35 AM 52.5 °F 49.8 °F 91% 30.02 in 7.0 mi East 5.8 mph - N/A   Clear
5:55 AM 51.3 °F 48.6 °F 90% 30.03 in 7.0 mi ENE 4.6 mph - N/A   Clear
6:15 AM 49.5 °F 48.0 °F 95% 30.04 in 4.0 mi ENE 3.5 mph - N/A   Clear
6:35 AM 48.6 °F 47.1 °F 95% 30.04 in 5.0 mi ENE 4.6 mph - N/A   Clear
6:55 AM 49.1 °F 47.5 °F 94% 30.05 in 4.0 mi ENE 4.6 mph - N/A   Clear
7:15 AM 49.3 °F 48.0 °F 95% 30.06 in 4.0 mi ENE 4.6 mph - N/A   Clear
7:35 AM 51.4 °F 49.5 °F 93% 30.06 in 4.0 mi East 4.6 mph - N/A   Clear
7:55 AM 54.9 °F 52.2 °F 91% 30.07 in 4.0 mi Calm Calm - N/A   Clear
8:15 AM 57.2 °F 52.9 °F 85% 30.07 in 5.0 mi East 3.5 mph - N/A   Clear
8:35 AM 59.4 °F 53.8 °F 82% 30.08 in 7.0 mi East 3.5 mph - N/A   Clear
8:55 AM 61.3 °F 53.6 °F 76% 30.08 in 7.0 mi ESE 4.6 mph - N/A   Clear
9:15 AM 63.5 °F 53.2 °F 69% 30.08 in 10.0 mi East 5.8 mph - N/A   Clear
9:35 AM 64.8 °F 52.5 °F 64% 30.08 in 10.0 mi ESE 3.5 mph - N/A   Clear
9:55 AM 66.2 °F 52.3 °F 61% 30.08 in 10.0 mi East 4.6 mph - N/A   Clear
10:15 AM 68.0 °F 51.3 °F 55% 30.07 in 10.0 mi SE 5.8 mph - N/A   Clear
10:35 AM 69.3 °F 51.6 °F 53% 30.08 in 10.0 mi ESE 4.6 mph - N/A   Clear
10:55 AM 70.0 °F 48.9 °F 47% 30.08 in 10.0 mi SE 6.9 mph - N/A   Clear
11:15 AM 71.8 °F 47.3 °F 42% 30.08 in 10.0 mi East 6.9 mph - N/A   Clear
11:35 AM 72.3 °F 45.9 °F 39% 30.07 in 10.0 mi East 6.9 mph - N/A   Clear
11:55 AM 72.5 °F 45.7 °F 38% 30.07 in 10.0 mi ESE 5.8 mph - N/A   Clear
12:15 PM 73.6 °F 44.1 °F 35% 30.07 in 10.0 mi East 4.6 mph - N/A   Clear
12:35 PM 73.9 °F 42.1 °F 32% 30.07 in 10.0 mi SSE 10.4 mph - N/A   Clear
12:55 PM 74.1 °F 41.5 °F 31% 30.07 in 10.0 mi SE 5.8 mph - N/A   Clear
1:15 PM 74.8 °F 41.2 °F 30% 30.06 in 10.0 mi SE 4.6 mph - N/A   Clear
1:35 PM 75.7 °F 42.3 °F 30% 30.05 in 10.0 mi SSE 8.1 mph - N/A   Clear
1:55 PM 75.4 °F 42.8 °F 31% 30.05 in 10.0 mi SSW 3.5 mph - N/A   Clear
2:15 PM 76.5 °F 43.2 °F 30% 30.04 in 10.0 mi East 3.5 mph - N/A   Clear
2:35 PM 75.7 °F 43.9 °F 32% 30.04 in 10.0 mi ESE 4.6 mph - N/A   Clear
2:55 PM 76.8 °F 43.9 °F 31% 30.04 in 10.0 mi South 5.8 mph - N/A   Clear
3:15 PM 76.6 °F 44.4 °F 32% 30.04 in 10.0 mi Calm Calm - N/A   Clear
3:35 PM 77.5 °F 44.2 °F 31% 30.04 in 10.0 mi NE 3.5 mph - N/A   Clear
3:55 PM 77.9 °F 43.9 °F 30% 30.04 in 10.0 mi SE 3.5 mph - N/A   Clear
4:15 PM 78.1 °F 42.1 °F 28% 30.04 in 10.0 mi ESE 5.8 mph - N/A   Clear
4:35 PM 78.1 °F 42.4 °F 28% 30.04 in 10.0 mi SE 3.5 mph - N/A   Clear
4:55 PM 77.7 °F 41.9 °F 28% 30.04 in 10.0 mi East 8.1 mph - N/A   Clear
5:15 PM 77.4 °F 42.1 °F 28% 30.04 in 10.0 mi East 5.8 mph - N/A   Clear
5:35 PM 76.8 °F 42.8 °F 30% 30.04 in 10.0 mi East 6.9 mph - N/A   Clear
5:55 PM 75.2 °F 45.7 °F 35% 30.04 in 10.0 mi ENE 10.4 mph - N/A   Clear
6:15 PM 72.3 °F 52.2 °F 49% 30.04 in 10.0 mi East 9.2 mph - N/A   Clear
6:35 PM 69.8 °F 52.7 °F 54% 30.05 in 10.0 mi East 8.1 mph - N/A   Clear
6:55 PM 68.0 °F 52.9 °F 58% 30.05 in 10.0 mi East 8.1 mph - N/A   Clear
7:15 PM 67.1 °F 52.7 °F 60% 30.05 in 10.0 mi East 6.9 mph - N/A   Clear
7:35 PM 64.4 °F 52.7 °F 66% 30.05 in 10.0 mi East 6.9 mph - N/A   Clear
7:55 PM 63.9 °F 52.3 °F 66% 30.06 in 10.0 mi East 8.1 mph - N/A   Clear
8:15 PM 63.7 °F 52.3 °F 67% 30.07 in 10.0 mi East 9.2 mph - N/A   Clear
8:35 PM 62.6 °F 52.7 °F 70% 30.07 in 10.0 mi East 8.1 mph - N/A   Clear
8:55 PM 62.1 °F 52.9 °F 72% 30.07 in 10.0 mi East 8.1 mph - N/A   Clear
9:15 PM 60.8 °F 52.9 °F 75% 30.07 in 10.0 mi East 6.9 mph - N/A   Clear
9:35 PM 60.1 °F 52.7 °F 77% 30.08 in 10.0 mi East 5.8 mph - N/A   Clear
9:55 PM 59.0 °F 52.3 °F 79% 30.08 in 10.0 mi East 5.8 mph - N/A   Clear
10:15 PM 59.2 °F 52.3 °F 78% 30.08 in 10.0 mi ESE 5.8 mph - N/A   Clear
10:35 PM 58.6 °F 52.2 °F 79% 30.09 in 10.0 mi East 6.9 mph - N/A   Clear
10:55 PM 58.1 °F 51.8 °F 80% 30.09 in 10.0 mi East 6.9 mph - N/A   Clear
11:15 PM 58.1 °F 52.7 °F 82% 30.09 in 10.0 mi East 6.9 mph - N/A   Clear
11:35 PM 58.1 °F 52.9 °F 83% 30.09 in 10.0 mi East 5.8 mph - N/A   Clear
11:55 PM 57.2 °F 52.7 °F 85% 30.09 in 10.0 mi East 5.8 mph - N/A   Clear